Regional Weather Roundup
Issued by NWS Upton, NY

Current Version | Previous Version | Graphics & Text | Print | Product List | Glossary Off
Versions: 1 2 3 4 5 6 7 8 9 10 11 12 13 14 15 16 17 18 19 20 21 22 23 24 25 26 27

000
ASUS41 KOKX 220808
RWROKX

REGIONAL WEATHER ROUNDUP
NATIONAL WEATHER SERVICE NEW YORK NY
300 AM EST WED FEB 22 2017

NOTE: "FAIR" INDICATES FEW OR NO CLOUDS BELOW 12,000 FEET WITH NO
SIGNIFICANT WEATHER AND/OR OBSTRUCTIONS TO VISIBILITY.

NYZ071-072-176-178-NJZ106-104-220900-
NEW YORK CITY METRO AREA

CITY           SKY/WX    TMP DP  RH WIND       PRES   REMARKS
Central Park   PTCLDY    43  34  70 VRB6      30.09S
Wall St Helipt NOT AVBL
LaGuardia APRT CLOUDY    45  34  65 SW10      30.07
Kennedy INTL   CLOUDY    40  38  93 SW6       30.09S
Breezy Point     N/A     39 N/A N/A SW5         N/A
Newark/Liberty CLOUDY    42  34  73 SW5       30.08S
Teterboro      NOT AVBL
$$

NYZ177-179-078>081-220900-
LONG ISLAND NEW YORK

CITY           SKY/WX    TMP DP  RH WIND       PRES   REMARKS
Jones Beach      N/A     41 N/A N/A SW3         N/A
Matinecock PT    N/A     41 N/A N/A SW12        N/A
Farmingdale    NOT AVBL
MacArthur/ISP  NOT AVBL
Shirley        NOT AVBL
Westhampton    NOT AVBL
Southampton    NOT AVBL
Bridgehampton  NOT AVBL
East Hampton   CLOUDY    41  37  87 CALM      30.08S
Montauk          N/A     42  38  85 SW5       30.10F
$$

NYZ052-065-067-220900-
HUDSON VALLEY

CITY           SKY/WX    TMP DP  RH WIND       PRES   REMARKS
White Plains   NOT AVBL
Newburgh       CLOUDY    39  34  81 CALM      30.05F
Montgomery     NOT AVBL
Poughkeepsie   NOT AVBL
Albany         CLOUDY    40  30  67 S5        30.02F
$$

NJZ001-105-106-008-010-013-015-019>022-104-220900-
NEW JERSEY

CITY           SKY/WX    TMP DP  RH WIND       PRES   REMARKS
Newark/Liberty CLOUDY    42  34  73 SW5       30.08S
Teterboro      NOT AVBL
Caldwell       NOT AVBL
Somerville     NOT AVBL
Linden         NOT AVBL
Sussex         NOT AVBL
Andover          N/A     40  33  76 SW5       30.05S
Trenton        NOT AVBL
Millville      NOT AVBL
Atlantic City  CLOUDY    38  34  85 CALM      30.08F
Wrightstown    CLOUDY    38  35  87 SW6       30.04F WCI  34
Toms River     NOT AVBL
Belmar         NOT AVBL
$$

PAZ047>061-062-071-220900-
EASTERN PENNSYLVANIA

CITY           SKY/WX    TMP DP  RH WIND       PRES   REMARKS
Philadelphia   CLOUDY    42  36  79 S3        30.07F
Allentown      NOT AVBL
Scranton       NOT AVBL
$$

CTZ002-004>006-009-010-012-RIZ004-006-007-MAZ004-011-015-220900-
SOUTHERN NEW ENGLAND
 IN CT

CITY           SKY/WX    TMP DP  RH WIND       PRES   REMARKS
Bradley INTL   LGT RAIN  37  33  85 S7        30.05F WCI  32
Hartford       CLOUDY    39  33  79 S8        30.07F WCI  33
Danbury        NOT AVBL
Wtrbury/Oxford CLOUDY    37  30  75 CALM      30.06F
Bridgeport     NOT AVBL
Meriden        MOCLDY    37  32  82 S5        30.08F WCI  33
New Haven      NOT AVBL
Chester        CLOUDY    37  36  93 SW3       30.07S
Groton         CLOUDY    40  36  86 SW5       30.09R
Wilimantic     CLOUDY    36  31  82 S3        30.07F

 IN RI

CITY           SKY/WX    TMP DP  RH WIND       PRES   REMARKS
Providence     PTCLDY    36  32  85 S6        30.08F WCI  31
Block Island   CLOUDY    41  37  86 SW8       30.09F
Westerly       CLOUDY    41  35  79 SW5       30.09F
 IN MA

CITY           SKY/WX    TMP DP  RH WIND       PRES   REMARKS
Boston         CLOUDY    38  32  79 SW12      30.05F WCI  30
Worcester      CLOUDY    35  29  78 SW12      30.01F WCI  27
Westfield      CLOUDY    36  31  82 SE5       30.04F WCI  32
Provincetown   CLOUDY    38  31  76 S12       30.08F WCI  30
Nantucket      CLOUDY    37  32  82 S7        30.10F WCI  32
$$

ANZ330-335-338-340-345-350-353-355-220900-
COASTAL MARINE OBSERVATIONS


STATION/POSITION TIME  SKY/WX   TEMP    WIND        PRES    VSBY  WAVE
                                AIR SEA DIR/SP/G                  HT/PER
                 (UTC)          (F)     (DEG/KT/KT) (MB)    (MI)  (FT/S)
NY HARB ENTRANCE 0650            42 42  200/  8/ 10 1018.3          2/ 6
20 S FIRE ISLAND 0750            43 43  190/  8/ 10 1018.1          2/ 3
GREAT SOUTH BAY  NOT AVBL
23 SSW MONTAUK P 0650            45 46              1019.4          3/ 8
15 E BARNEGAT LI 0730               43                N/A           2/ 7
HUDSON CANYON    0650               49              1019.6          2/ 6
KINGS POINT      0742            42 40              1018.2
EXECUTION ROCKS  NOT AVBL
CENTRAL LI SOUND 0730            40     220/  6/  6   N/A           0
EASTERN LI SOUND NOT AVBL
ROBBINS REEF     0742            42     240/  7/  9 1018.6
$$


>>>>>>>>>>>>>>>>>>>>>>>>>>>> KEY <<<<<<<<<<<<<<<<<<<<<<<<<<<
>                                                          <
>     SKY/WX - Sky Condition/Present Weather               <
>     TMP    - Temperature in Fahrenheit                   <
>     DP     - Dew Point in Fahrenheit                     <
>     RH     - Relative Humidity in Percent                <
>     WIND   - Direction (from) and Speed in MPH           <
>     PRES   - Mean Sea Level Pressure (inches of Hg)      <
>     WCI    - Wind Chill Index                            <
>     VSB    - VISIBILITY IN MILES                         <
>     HX     - HEAT INDEX                                  <
>     TC     - TEMPERATURE IN CELSIUS                      <
>     VRB    - VARIABLE WIND DIRECTION                     <
>                                                          <
>>>>>>>>>>>>>>>>>>>>>>>>>>>> KEY <<<<<<<<<<<<<<<<<<<<<<<<<<<




USA.gov is the U.S. government's official web portal to all federal, state and local government web resources and services.